Hourly Data Report for October 18, 2016

All times are specified in Local Standard Time (LST). Add 1 hour to adjust for Daylight Saving Time where and when it is observed.

IQALUIT CLIMATE
NUNAVUT

63°44'50.000" N
68°32'40.000" W
33.50 m
2402592
71321
XFB

Download Data

Hourly Data (October 2016)
Hourly Data Report for October 18, 2016
Temp Definition
°C
Dew Point Temp Definition
°C
Rel Hum Definition
%
Wind Dir Definition
10's deg

Wind Spd Definition
km/h
Visibility Definition
km
Stn Press Definition
kPa
Hmdx Definition


Wind Chill Definition


Weather Definition


TIME
00:00 -1.9 -5.2 78 28 7   102.00   -5 LegendNANA
01:00 -1.8 -4.8 80 30 12   102.00   -6 LegendNANA
02:00 -1.9 -5.3 77 29 19   102.01   -7 LegendNANA
03:00 -2.3 -5.7 77 30 16   102.01   -7 LegendNANA
04:00 -2.0 -5.1 79 29 17   101.99   -7 LegendNANA
05:00 -2.8 -3.9 92 31 20   101.96   -9 LegendNANA
06:00 -4.1 -5.5 90 33 18   101.99   -10 LegendNANA
07:00 -4.7 -7.6 80 34 12   102.05   -9 LegendNANA
08:00 -5.9 -7.9 86 33 12   102.08   -11 LegendNANA
09:00 -6.3 -8.7 83 33 11   102.09   -11 LegendNANA
10:00 -6.8 -9.2 83 33 13   102.04   -12 LegendNANA
11:00 -8.8 -11.7 79 36 9   102.01   -13 LegendNANA
12:00 -7.3 -10.5 78 33 8   101.97   -11 LegendNANA
13:00 -5.4 -9.1 75 34 10   101.96   -10 LegendNANA
14:00 -5.4 -8.7 78 35 11   101.94   -10 LegendNANA
15:00 -6.3 -9.4 79 34 11   101.93   -11 LegendNANA
16:00 -8.3 -11.9 75 2 9   101.92   -13 LegendNANA
17:00 -8.4 -11.3 80 36 10   101.89   -13 LegendNANA
18:00 -7.6 -11.4 74 2 5   101.87   -10 LegendNANA
19:00 -6.4 -12.4 63 4 21   101.83   -13 LegendNANA
20:00 -6.3 -12.4 62 3 23   101.80   -14 LegendNANA
21:00 -7.0 -12.7 64 3 24   101.80   -15 LegendNANA
22:00 -9.8 -14.4 69 36 12   101.76   -16 LegendNANA
23:00 -10.0 -14.0 73 35 10   101.74   -15 LegendNANA

Notes on Data Quality.

Legend

  • E = Estimated
  • M = Missing
  • NA = Not Available
  • ‡ = Partner data that is not subject to review by the National Climate Archives
Date modified: